Wind_Speed
25 25 26 27 29 30 31 29 27 26 26 27 29 32 38 41 41 40 38 35 31 27 24 21 17 17 17 18 18 18 20 20 20 20 19 20 21 23 23 23 24 24 24 26
25 25 25 28 29 29 29 28 26 26 27 26 27 29 34 39 41 40 39 36 33 29 26 22 20 19 19 19 20 19 20 21 22 23 23 23 27 27 28 28 28 28 28 30
24 24 25 27 28 28 28 27 26 26 27 26 26 27 30 33 35 37 36 35 33 31 28 25 23 21 20 17 19 21 21 22 23 24 25 25 27 29 30 31 30 30 31 32
23 24 26 26 27 27 27 27 27 27 27 26 25 25 27 29 29 31 31 32 32 31 28 26 24 23 22 22 21 21 23 24 25 25 28 29 30 31 32 31 31 32 31 32
22 23 25 25 25 26 25 28 28 29 28 26 24 25 26 26 26 27 26 27 28 29 28 28 26 24 24 24 24 24 24 25 27 28 30 31 33 34 34 32 32 32 31 31
21 23 23 24 26 26 26 29 30 30 29 27 26 26 27 27 27 26 26 25 26 27 27 28 27 26 26 26 26 26 26 27 30 32 34 35 35 35 36 35 33 33 34 34
18 20 22 24 26 27 27 29 29 30 30 29 27 28 29 29 28 28 28 28 28 29 29 29 29 28 28 28 29 30 31 32 34 36 37 37 36 38 37 36 37 36 36 37
17 18 20 22 24 25 27 29 29 30 30 29 28 29 29 29 29 30 31 32 32 32 32 32 32 32 32 33 33 34 36 37 38 39 40 39 40 40 40 40 40 39 39 40
16 17 19 21 23 25 26 28 29 29 29 30 30 30 30 31 30 31 32 33 33 33 34 34 35 35 36 36 37 37 39 41 41 42 42 42 42 43 43 43 42 42 41 42
16 17 20 21 23 24 25 26 27 28 28 28 30 31 31 32 33 33 33 34 34 34 35 36 37 38 39 40 41 42 43 43 44 44 45 45 46 46 45 44 44 43 44 44
15 17 19 21 22 22 24 25 27 28 29 28 29 31 32 32 33 34 35 36 37 38 38 38 38 39 40 41 42 43 44 45 46 47 46 46 46 46 46 46 46 46 47 47
14 15 17 19 21 22 23 24 25 26 27 29 31 32 33 33 34 35 36 38 38 39 40 39 39 39 39 39 40 42 42 43 43 43 44 45 45 46 46 46 47 49 49 50
13 14 15 17 18 20 21 23 24 25 26 27 29 32 32 33 33 34 36 37 39 39 39 39 39 39 39 39 39 38 38 40 40 41 41 43 44 45 46 47 48 49 49 50
9 11 13 15 17 18 19 21 23 24 25 27 29 31 32 32 33 34 35 37 38 39 40 40 40 39 39 38 38 38 38 39 40 40 40 41 43 44 44 45 46 47 48 50
7 9 11 13 14 16 17 20 21 22 24 26 28 29 31 32 33 34 34 35 36 37 37 37 37 37 36 35 36 35 35 36 37 38 38 38 39 41 41 43 44 45 47 48
3 5 7 9 11 14 17 18 19 21 23 25 27 29 29 30 31 32 32 32 32 33 34 33 32 32 33 34 33 33 33 33 34 35 36 37 39 41 41 43 44 45 46 48
3 4 6 8 10 11 13 16 19 20 22 24 25 27 28 29 29 30 30 29 28 28 28 29 29 28 30 30 30 29 29 30 31 33 35 36 37 39 41 42 43 44 46 47
4 4 5 6 8 10 11 13 15 17 19 20 21 23 25 26 26 27 27 27 26 25 25 26 27 27 27 27 28 28 28 29 30 31 33 35 36 37 39 40 42 43 45 45
6 5 5 6 6 7 9 11 12 13 14 15 16 18 19 21 21 22 22 21 21 21 21 22 22 23 24 24 25 26 27 29 30 32 33 34 35 37 38 39 41 42 42 43
7 7 7 7 7 8 8 10 11 12 13 13 14 15 15 16 17 19 18 18 18 19 19 19 20 21 22 23 24 26 28 29 30 30 31 33 34 35 36 37 38 38 39 40
8 8 8 9 9 9 9 10 11 12 12 12 13 13 13 14 15 15 16 16 16 16 17 17 18 20 21 22 24 25 26 27 28 29 30 31 32 33 34 35 36 37 37 38
10 10 10 10 11 11 11 11 11 12 12 12 12 12 12 12 13 14 14 14 14 15 15 17 18 19 20 22 23 23 24 25 26 27 28 29 30 31 32 32 32 32 33 34
11 11 12 12 12 12 12 12 12 12 11 11 11 10 11 11 11 12 12 12 13 14 15 16 17 19 20 20 21 22 23 24 25 26 27 27 27 28 27 27 28 28 29 29
12 13 13 13 13 13 13 13 12 11 11 10 10 9 9 9 10 10 10 11 12 13 14 16 17 18 19 20 20 21 22 23 23 23 23 23 23 23 23 23 24 24 25 25
12 13 14 14 14 14 13 13 12 11 10 9 8 8 8 8 8 8 9 9 11 12 14 15 17 17 18 18 18 19 19 20 20 19 19 19 19 20 20 20 20 21 21 21
13 14 15 15 15 14 13 13 12 10 9 7 7 7 7 7 7 8 8 10 11 13 14 16 16 16 16 16 17 18 18 18 18 17 17 17 17 17 18 18 18 18 18 18
Wind_Direction
231 226 221 219 218 219 218 215 212 215 220 221 219 217 217 223 227 230 233 236 238 239 238 235 237 239 240 235 231 235 238 243 247 253 259 260 260 261 265 267 269 270 274 275
227 222 218 217 216 216 217 214 209 212 219 221 221 221 221 225 231 234 235 235 236 236 236 238 237 239 238 233 232 235 240 246 248 251 258 267 266 264 267 268 270 272 276 278
224 218 215 215 213 213 213 211 206 209 217 220 220 222 223 227 231 234 236 235 232 232 235 237 235 237 240 240 240 240 244 246 249 255 259 268 269 270 273 273 277 280 283 282
221 215 213 212 211 209 208 206 204 207 214 217 219 220 223 226 228 230 232 231 228 228 232 235 234 236 242 246 247 246 246 250 255 261 265 268 272 274 276 277 281 284 290 288
216 212 211 210 208 206 205 205 204 207 212 214 217 217 219 221 222 224 224 224 224 227 233 234 236 239 244 249 254 255 255 258 263 266 270 270 274 276 280 281 284 287 289 291
212 210 209 206 205 203 203 206 206 208 212 213 216 217 215 218 219 219 220 221 224 228 231 236 240 244 248 253 257 260 264 265 267 270 272 273 276 280 283 286 287 289 290 292
207 206 205 204 203 203 203 206 206 208 212 215 217 220 218 218 220 222 223 225 227 230 234 239 244 248 251 255 259 263 265 267 269 271 274 275 279 284 286 289 292 293 294 292
194 196 198 199 201 202 203 206 208 211 215 218 221 225 224 223 225 226 228 231 234 237 242 245 248 252 255 259 261 264 266 267 268 270 273 276 280 285 288 291 292 291 292 291
179 184 189 193 196 200 204 207 210 215 218 222 225 230 231 229 230 232 235 239 243 246 250 252 254 257 259 262 263 265 266 268 270 272 274 279 283 285 286 289 290 289 289 290
173 180 187 191 197 202 206 209 212 217 221 227 232 235 238 238 238 240 243 246 249 253 256 257 259 261 263 265 266 267 269 271 273 275 276 280 282 284 286 285 286 286 287 287
172 181 189 195 201 206 211 214 217 221 226 232 237 240 242 245 246 248 250 253 255 258 260 262 265 266 267 268 269 271 270 271 273 275 277 279 280 282 283 284 284 284 285 286
181 187 191 199 206 212 217 220 223 226 231 236 241 244 245 249 252 254 255 258 261 263 264 266 268 270 270 272 272 272 272 272 275 277 277 278 278 280 280 281 282 283 285 285
189 197 203 208 213 218 222 226 229 232 236 240 244 248 249 252 255 258 260 262 264 266 268 270 271 272 272 273 275 276 275 275 276 276 277 276 277 277 278 280 280 282 283 284
201 207 213 219 224 227 230 232 234 237 241 246 249 253 254 256 259 261 264 266 267 269 271 273 276 276 277 277 277 276 276 275 276 276 278 277 277 277 279 281 282 282 284 284
224 227 228 232 234 235 241 243 242 245 249 254 256 260 262 263 264 266 269 271 272 273 276 278 279 279 281 281 280 281 280 280 279 278 278 277 278 280 282 283 284 285 285 285
237 238 242 244 247 250 253 255 255 258 260 261 262 263 266 268 269 272 275 275 275 278 279 279 278 279 282 283 281 281 282 281 281 280 280 281 281 282 284 284 286 289 289 289
287 269 262 260 261 265 262 263 263 265 266 267 267 266 266 267 271 273 274 276 278 279 278 276 279 281 283 283 281 281 281 283 283 283 283 283 284 285 286 287 288 289 290 291
337 312 294 283 278 272 274 273 272 272 271 268 266 265 265 266 269 272 274 276 276 277 278 280 281 280 281 282 281 283 282 283 285 285 285 285 286 287 288 290 291 292 293 293
355 342 327 311 297 289 280 278 278 278 278 279 276 271 267 267 271 272 274 275 274 274 276 278 280 281 282 283 283 284 284 285 286 287 287 288 290 291 292 294 295 296 296 297
1 355 343 332 319 309 301 292 287 285 285 288 283 278 276 274 274 275 278 278 276 277 276 279 281 283 284 284 284 285 286 288 289 290 291 293 295 296 297 298 299 299 300 300
7 0 352 343 333 325 320 311 303 296 294 292 287 282 276 276 277 278 278 279 279 280 282 283 283 285 287 288 288 288 290 291 293 295 296 297 297 298 299 300 301 301 302 304
8 2 355 348 343 336 330 322 314 306 300 295 291 287 284 282 280 278 279 280 282 285 287 288 288 290 292 293 292 293 295 297 298 299 300 300 300 301 302 303 305 307 309 311
9 5 360 354 348 342 337 330 323 315 309 304 302 298 293 290 287 285 286 288 290 293 295 296 297 296 296 295 296 297 299 302 303 304 304 305 305 306 307 308 311 314 317 319
8 6 2 357 353 349 343 338 332 325 318 313 310 307 303 299 297 296 298 301 301 303 303 303 303 301 299 298 299 302 305 307 308 308 309 310 311 313 315 316 318 321 324 326
9 7 5 2 358 354 350 345 338 332 327 322 319 318 316 315 313 312 313 313 312 313 312 312 310 308 307 306 306 308 311 312 312 312 314 315 317 319 321 323 325 328 330 332
11 9 6 3 1 357 354 350 347 345 342 337 333 333 332 330 328 325 324 322 320 319 319 318 317 314 313 311 309 309 311 313 313 314 316 318 320 324 327 330 332 334 337 340
Height
5763 5768 5772 5776 5781 5786 5792 5798 5802 5807 5810 5814 5817 5821 5825 5828 5831 5835 5840 5844 5849 5853 5857 5859 5861 5863 5863 5865 5867 5868 5870 5871 5872 5873 5873 5872 5871 5870 5869 5867 5866 5865 5863 5862
5759 5764 5767 5771 5776 5782 5787 5794 5799 5803 5806 5810 5814 5817 5821 5824 5827 5831 5835 5840 5844 5848 5852 5855 5857 5858 5859 5860 5862 5864 5865 5866 5866 5867 5867 5867 5865 5864 5862 5861 5859 5857 5856 5855
5754 5760 5763 5767 5772 5778 5784 5790 5795 5798 5802 5806 5811 5814 5817 5820 5823 5827 5830 5835 5839 5843 5847 5850 5852 5854 5855 5856 5858 5859 5860 5860 5861 5861 5861 5860 5859 5857 5856 5854 5852 5851 5850 5848
5751 5755 5759 5764 5769 5774 5781 5786 5790 5794 5798 5803 5807 5810 5813 5816 5819 5822 5826 5830 5834 5838 5842 5845 5847 5849 5850 5851 5852 5853 5854 5855 5855 5855 5854 5853 5851 5849 5848 5846 5845 5844 5842 5840
5747 5752 5756 5761 5767 5772 5777 5781 5786 5790 5795 5800 5803 5807 5810 5813 5816 5819 5822 5826 5830 5834 5837 5840 5842 5844 5845 5846 5846 5847 5848 5849 5849 5848 5847 5846 5843 5841 5839 5838 5837 5836 5834 5833
5745 5749 5754 5759 5763 5768 5773 5778 5783 5788 5792 5797 5801 5804 5808 5810 5814 5817 5820 5823 5826 5829 5832 5834 5836 5838 5839 5840 5840 5841 5842 5842 5842 5841 5839 5837 5836 5834 5831 5829 5829 5828 5827 5825
5744 5748 5752 5757 5761 5766 5771 5776 5781 5786 5790 5794 5797 5800 5804 5807 5811 5814 5817 5819 5822 5825 5827 5829 5830 5832 5833 5833 5834 5834 5834 5834 5833 5832 5830 5828 5827 5826 5824 5822 5821 5820 5819 5818
5743 5747 5751 5755 5760 5764 5769 5774 5779 5784 5787 5791 5794 5796 5801 5803 5807 5810 5812 5815 5817 5820 5821 5823 5824 5825 5826 5826 5826 5827 5826 5825 5825 5823 5821 5819 5819 5817 5816 5814 5812 5811 5810 5809
5743 5747 5750 5754 5758 5763 5767 5771 5776 5780 5784 5787 5789 5792 5796 5799 5802 5805 5807 5809 5811 5813 5815 5816 5817 5818 5818 5819 5819 5819 5817 5816 5815 5813 5812 5811 5809 5808 5806 5805 5803 5802 5801 5799
5743 5747 5750 5754 5758 5761 5766 5769 5773 5777 5780 5783 5785 5787 5790 5793 5796 5799 5801 5803 5804 5806 5807 5808 5809 5809 5810 5810 5811 5810 5809 5807 5806 5804 5803 5802 5800 5798 5796 5795 5794 5792 5791 5789
5744 5747 5750 5753 5756 5760 5764 5767 5770 5773 5776 5779 5781 5785 5786 5788 5790 5792 5794 5795 5797 5798 5799 5800 5800 5800 5801 5801 5801 5800 5799 5798 5797 5795 5794 5793 5791 5789 5787 5785 5783 5782 5780 5778
5745 5747 5749 5752 5755 5758 5761 5764 5767 5770 5773 5775 5777 5781 5780 5782 5783 5785 5786 5787 5789 5790 5790 5791 5791 5791 5791 5791 5790 5790 5789 5788 5787 5786 5784 5782 5781 5779 5777 5775 5773 5771 5769 5766
5745 5748 5750 5752 5756 5757 5759 5761 5763 5766 5768 5770 5771 5775 5774 5776 5777 5778 5779 5779 5780 5781 5781 5781 5782 5782 5781 5781 5780 5779 5778 5778 5777 5776 5774 5772 5771 5769 5767 5765 5762 5760 5757 5754
5745 5747 5749 5752 5753 5754 5756 5758 5760 5763 5764 5765 5766 5767 5768 5769 5770 5771 5771 5771 5772 5772 5773 5773 5773 5772 5772 5771 5770 5770 5769 5768 5767 5765 5764 5762 5760 5758 5756 5753 5751 5748 5745 5742
5745 5746 5747 5748 5750 5752 5753 5755 5756 5758 5759 5760 5761 5761 5762 5763 5763 5764 5764 5764 5764 5764 5764 5764 5763 5763 5762 5761 5760 5759 5759 5757 5756 5755 5754 5752 5750 5747 5745 5742 5739 5736 5733 5729
5744 5745 5746 5747 5748 5749 5751 5751 5753 5754 5754 5754 5755 5755 5755 5755 5756 5756 5756 5756 5756 5756 5755 5755 5754 5753 5753 5752 5751 5750 5749 5747 5746 5744 5743 5741 5738 5736 5733 5730 5727 5724 5721 5717
5743 5744 5745 5745 5746 5747 5748 5748 5748 5748 5748 5749 5748 5749 5749 5749 5749 5749 5749 5749 5748 5748 5747 5746 5746 5745 5744 5743 5742 5741 5740 5738 5736 5735 5732 5730 5728 5725 5722 5719 5716 5712 5708 5705
5743 5743 5743 5743 5744 5744 5746 5744 5744 5743 5743 5742 5742 5742 5742 5742 5742 5742 5742 5741 5741 5740 5739 5738 5738 5737 5736 5735 5733 5732 5730 5729 5727 5725 5723 5720 5718 5715 5712 5708 5705 5701 5697 5692
5743 5742 5742 5741 5741 5741 5741 5740 5739 5739 5738 5738 5737 5736 5736 5735 5735 5735 5735 5734 5734 5733 5732 5731 5731 5730 5728 5727 5726 5724 5722 5721 5719 5716 5714 5711 5708 5705 5702 5698 5695 5691 5686 5682
5743 5742 5741 5740 5739 5739 5739 5737 5736 5736 5735 5734 5732 5731 5731 5730 5731 5730 5729 5729 5728 5727 5726 5725 5725 5723 5722 5720 5719 5717 5715 5713 5711 5708 5706 5703 5699 5696 5693 5689 5685 5680 5676 5671
5743 5742 5740 5739 5737 5736 5735 5733 5733 5733 5732 5730 5728 5727 5726 5726 5726 5725 5724 5723 5723 5722 5721 5720 5719 5718 5716 5714 5712 5710 5708 5706 5703 5700 5698 5695 5691 5688 5684 5680 5676 5672 5667 5662
5743 5741 5739 5737 5735 5736 5732 5731 5730 5729 5726 5725 5724 5723 5722 5722 5721 5721 5720 5719 5718 5717 5716 5715 5714 5712 5710 5708 5706 5704 5702 5699 5696 5693 5690 5687 5684 5680 5676 5672 5668 5664 5659 5653
5743 5741 5738 5737 5736 5732 5730 5728 5726 5724 5723 5722 5720 5720 5719 5718 5718 5717 5716 5715 5714 5713 5712 5710 5709 5707 5705 5703 5700 5698 5695 5693 5690 5686 5683 5680 5676 5673 5669 5665 5661 5657 5652 5647
5743 5740 5738 5735 5733 5730 5728 5725 5723 5721 5720 5719 5718 5717 5716 5715 5714 5714 5713 5712 5711 5709 5708 5706 5704 5702 5700 5697 5695 5692 5689 5686 5683 5680 5677 5673 5670 5667 5663 5660 5656 5652 5647 5642
5743 5740 5737 5735 5732 5729 5726 5724 5721 5720 5718 5717 5716 5715 5714 5713 5712 5711 5710 5709 5708 5706 5704 5702 5699 5697 5694 5692 5689 5686 5684 5681 5678 5675 5672 5669 5666 5662 5659 5655 5652 5648 5643 5639
5743 5740 5737 5735 5732 5729 5726 5723 5721 5719 5717 5716 5715 5714 5712 5711 5710 5709 5708 5707 5705 5703 5701 5698 5695 5692 5690 5687 5684 5682 5679 5676 5673 5670 5668 5665 5662 5659 5656 5652 5649 5645 5641 5637